Location: Bytom
(50.3475°N, 18.9244°E)
Time: 10:49:04
(UTC+01:00)

ISS - Pass Details

Date: 31 January 2019
Orbit: 403 x 411 km, 51.6° (Epoch: 22 February)

Event Time Altitude Azimuth Distance (km) Brightness Sun altitude
Rises 18:09:59 0° 272° (W) 2,335 1.8 -15.2°
Reaches altitude 10° 18:12:04 10° 275° (W) 1,476 0.3 -15.5°
Maximum altitude 18:15:22 68° 358° (N) 447 -3.7 -16.0°
Enters shadow 18:16:20 41° 67° (ENE) 606 -3.5 -16.2°
